Chesapeake, VA

10:58 AM EST on January 16, 2018 (GMT -0500)
Chesapeake Regional

Weather History for KCPK - April, 2014

Change the Weather History Date:

Saturday, April 5, 2014

  Actual Average (KSFQ) Record (KSFQ)
Temperature  
Mean Temperature 63 °F -  
Max Temperature 73 °F 65 °F 83 °F (1985)
Min Temperature 53 °F 45 °F 14 °F (1999)
Degree Days  
Heating Degree Days 2    
Growing Degree Days 13 (Base 50)    
Moisture  
Dew Point 46 °F    
Average Humidity 52    
Maximum Humidity 68    
Minimum Humidity 31    
Precipitation  
Precipitation 0.00 in - - ()
Sea Level Pressure  
Sea Level Pressure 29.92 in    
Wind  
Wind Speed 9 mph (North)    
Max Wind Speed 15 mph    
Max Gust Speed 21 mph    
Visibility 10 miles    
Events      
Averages and records for this station are not official NWS values.
T = Trace of Precipitation, MM = Missing Value Source: NWS Daily Summary

Daily Weather History Graph

Daily Weather History Graph

Search for Another Location

Airport or City:

Trip Planner

Search our weather history database for the weather conditions in past years. The results will help you decide how hot, cold, wet, or windy it might be!

Date:

Astronomy

Apr. 05, 2014 Rise Set
Actual Time 6:45 AM EDT 7:30 PM EDT
Civil Twilight 6:19 AM EDT 7:57 PM EDT
Nautical Twilight 5:48 AM EDT 8:28 PM EDT
Astronomical Twilight 5:16 AM EDT 9:00 PM EDT
Moon 10:56 AM EDT (4/5) 12:33 AM EDT (4/5)
Length of Visible Light 13h 37m
Length of Day
12h 45m
Waxing Crescent, 34% of the Moon is Illuminated
Apr 5
Waxing Crescent
Apr 7
First Quarter
Apr 15
Full
Apr 22
Last Quarter
Apr 29
New

Hourly Weather History & Observations

Time (EDT) Temp. Dew Point Humidity Pressure Visibility Wind Dir Wind Speed Gust Speed Precip Events Conditions
12:15 AM 69.8 °F 57.2 °F 64% 29.74 in 10.0 mi South 9.2 mph - N/A   Clear
12:35 AM 69.8 °F 57.2 °F 64% 29.75 in 10.0 mi South 9.2 mph - N/A   Clear
12:55 AM 69.8 °F 57.2 °F 64% 29.75 in 10.0 mi SSW 10.4 mph - N/A   Clear
1:15 AM 69.8 °F 57.2 °F 64% 29.75 in 10.0 mi SSW 8.1 mph - N/A   Clear
1:35 AM 69.8 °F 57.2 °F 64% 29.76 in 10.0 mi SSW 8.1 mph - N/A   Clear
1:55 AM 73.4 °F 57.2 °F 57% 29.76 in 10.0 mi SSW 13.8 mph - N/A   Clear
2:15 AM 73.4 °F 57.2 °F 57% 29.76 in 10.0 mi SW 8.1 mph 16.1 mph N/A   Clear
2:35 AM 71.6 °F 57.2 °F 60% 29.76 in 10.0 mi SW 8.1 mph - N/A   Clear
2:55 AM 71.6 °F 57.2 °F 60% 29.76 in 10.0 mi SW 6.9 mph - N/A   Clear
3:15 AM 69.8 °F 57.2 °F 64% 29.77 in 10.0 mi West 5.8 mph - N/A   Scattered Clouds
3:35 AM 68.0 °F 57.2 °F 68% 29.77 in 10.0 mi West 3.5 mph - N/A   Mostly Cloudy
3:55 AM 68.0 °F 57.2 °F 68% 29.78 in 10.0 mi West 4.6 mph - N/A   Overcast
4:15 AM 68.0 °F 55.4 °F 64% 29.78 in 10.0 mi WSW 5.8 mph - N/A   Mostly Cloudy
4:35 AM 68.0 °F 55.4 °F 64% 29.79 in 10.0 mi West 9.2 mph - N/A   Scattered Clouds
4:55 AM 68.0 °F 53.6 °F 60% 29.79 in 10.0 mi West 8.1 mph - N/A   Clear
5:15 AM 66.2 °F 53.6 °F 64% 29.80 in 10.0 mi West 6.9 mph - N/A   Clear
5:35 AM 66.2 °F 51.8 °F 60% 29.81 in 10.0 mi West 8.1 mph - N/A   Clear
5:55 AM 66.2 °F 51.8 °F 60% 29.82 in 10.0 mi West 8.1 mph - N/A   Clear
6:15 AM 66.2 °F 50.0 °F 56% 29.83 in 10.0 mi West 9.2 mph - N/A   Clear
6:35 AM 64.4 °F 50.0 °F 59% 29.83 in 10.0 mi West 6.9 mph - N/A   Clear
6:55 AM 62.6 °F 50.0 °F 63% 29.84 in 10.0 mi West 5.8 mph - N/A   Clear
7:15 AM 62.6 °F 50.0 °F 63% 29.86 in 10.0 mi West 6.9 mph - N/A   Clear
7:35 AM 62.6 °F 50.0 °F 63% 29.87 in 10.0 mi West 8.1 mph - N/A   Clear
7:55 AM 66.2 °F 46.4 °F 49% 29.88 in 10.0 mi WNW 10.4 mph - N/A   Clear
8:15 AM 66.2 °F 46.4 °F 49% 29.88 in 10.0 mi WNW 10.4 mph - N/A   Clear
8:35 AM 68.0 °F 46.4 °F 46% 29.89 in 10.0 mi WNW 11.5 mph 16.1 mph N/A   Clear
8:55 AM 69.8 °F 46.4 °F 43% 29.89 in 10.0 mi NW 10.4 mph - N/A   Clear
9:15 AM 68.0 °F 42.8 °F 40% 29.90 in 10.0 mi WNW 13.8 mph 17.3 mph N/A   Clear
9:35 AM 69.8 °F 37.4 °F 31% 29.90 in 10.0 mi WNW 13.8 mph 20.7 mph N/A   Clear
9:55 AM 69.8 °F 37.4 °F 31% 29.91 in 10.0 mi NW 15.0 mph 20.7 mph N/A   Clear
10:15 AM 64.4 °F 46.4 °F 52% 29.92 in 10.0 mi North 10.4 mph 16.1 mph N/A   Clear
10:35 AM 64.4 °F 46.4 °F 52% 29.93 in 10.0 mi NNE 9.2 mph - N/A   Clear
10:55 AM 64.4 °F 46.4 °F 52% 29.93 in 10.0 mi North 10.4 mph 18.4 mph N/A   Clear
11:15 AM 62.6 °F 44.6 °F 52% 29.94 in 10.0 mi NNE 10.4 mph 19.6 mph N/A   Clear
11:35 AM 62.6 °F 42.8 °F 48% 29.94 in 10.0 mi North 10.4 mph 17.3 mph N/A   Clear
11:55 AM 64.4 °F 42.8 °F 45% 29.94 in 10.0 mi NNE 9.2 mph - N/A   Clear
12:15 PM 64.4 °F 44.6 °F 49% 29.94 in 10.0 mi NE 13.8 mph - N/A   Clear
12:35 PM 62.6 °F 44.6 °F 52% 29.95 in 10.0 mi NE 10.4 mph - N/A   Clear
12:55 PM 64.4 °F 44.6 °F 49% 29.95 in 10.0 mi NE 10.4 mph - N/A   Clear
1:15 PM 64.4 °F 42.8 °F 45% 29.95 in 10.0 mi NE 11.5 mph - N/A   Clear
1:35 PM 64.4 °F 42.8 °F 45% 29.95 in 10.0 mi NE 5.8 mph - N/A   Clear
1:55 PM 64.4 °F 44.6 °F 49% 29.95 in 10.0 mi ENE 9.2 mph - N/A   Clear
2:15 PM 66.2 °F 44.6 °F 46% 29.95 in 10.0 mi NE 6.9 mph - N/A   Clear
2:35 PM 66.2 °F 44.6 °F 46% 29.94 in 10.0 mi NE 9.2 mph - N/A   Clear
2:55 PM 66.2 °F 44.6 °F 46% 29.93 in 10.0 mi NNE 9.2 mph - N/A   Clear
3:15 PM 66.2 °F 44.6 °F 46% 29.93 in 10.0 mi NE 8.1 mph - N/A   Clear
3:35 PM 66.2 °F 44.6 °F 46% 29.93 in 10.0 mi ENE 8.1 mph - N/A   Clear
3:55 PM 66.2 °F 44.6 °F 46% 29.93 in 10.0 mi ENE 11.5 mph - N/A   Scattered Clouds
4:15 PM 66.2 °F 44.6 °F 46% 29.94 in 10.0 mi NE 11.5 mph - N/A   Mostly Cloudy
4:35 PM 64.4 °F 44.6 °F 49% 29.94 in 10.0 mi East 8.1 mph - N/A   Scattered Clouds
4:55 PM 64.4 °F 44.6 °F 49% 29.95 in 10.0 mi NE 9.2 mph - N/A   Clear
5:15 PM 64.4 °F 44.6 °F 49% 29.95 in 10.0 mi ENE 9.2 mph - N/A   Clear
5:35 PM 64.4 °F 44.6 °F 49% 29.96 in 10.0 mi NE 5.8 mph - N/A   Clear
5:55 PM 64.4 °F 44.6 °F 49% 29.97 in 10.0 mi NNE 6.9 mph - N/A   Clear
6:15 PM 64.4 °F 44.6 °F 49% 29.98 in 10.0 mi East 8.1 mph - N/A   Clear
6:35 PM 62.6 °F 44.6 °F 52% 29.99 in 10.0 mi East 8.1 mph - N/A   Clear
6:55 PM 60.8 °F 44.6 °F 55% 30.00 in 10.0 mi ENE 8.1 mph - N/A   Clear
7:15 PM 60.8 °F 44.6 °F 55% 30.01 in 10.0 mi East 5.8 mph - N/A   Clear
7:35 PM 59.0 °F 41.0 °F 51% 30.02 in 10.0 mi NNE 5.8 mph - N/A   Clear
7:55 PM 59.0 °F 39.2 °F 48% 30.03 in 10.0 mi North 4.6 mph - N/A   Clear
8:35 PM 57.2 °F 35.6 °F 44% 30.05 in 10.0 mi North 5.8 mph - N/A   Clear
8:55 PM 55.4 °F 37.4 °F 51% 30.06 in 10.0 mi NNE 3.5 mph - N/A   Clear
9:15 PM 53.6 °F 39.2 °F 58% 30.08 in 10.0 mi NNE 4.6 mph - N/A   Clear
9:35 PM 53.6 °F 39.2 °F 58% 30.09 in 10.0 mi Calm Calm - N/A   Clear
9:55 PM 53.6 °F 37.4 °F 54% 30.10 in 10.0 mi NNE 4.6 mph - N/A   Clear
10:15 PM 53.6 °F 35.6 °F 51% 30.11 in 10.0 mi NNE 4.6 mph - N/A   Clear
10:35 PM 53.6 °F 33.8 °F 47% 30.11 in 10.0 mi NNE 9.2 mph - N/A   Clear
10:55 PM 53.6 °F 32.0 °F 44% 30.12 in 10.0 mi NNE 6.9 mph - N/A   Clear
11:15 PM 53.6 °F 32.0 °F 44% 30.12 in 10.0 mi NNE 8.1 mph - N/A   Clear
11:35 PM 53.6 °F 32.0 °F 44% 30.13 in 10.0 mi NNE 8.1 mph - N/A   Clear
11:55 PM 53.6 °F 30.2 °F 41% 30.13 in 10.0 mi NNE 8.1 mph - N/A   Clear